Regional Weather Roundup
Issued by NWS

Home | Current Version | Previous Version | Text Only | Print | Product List | Glossary On
Versions: 1 2 3 4 5 6 7 8 9 10 11 12 13 14 15 16 17 18 19 20 21 22 23 24 25 26 27 28 29 30 31 32 33 34 35 36 37 38 39 40 41 42 43 44 45 46 47 48 49 50
000
ASUS43 KDTX 182101
RWRMI
MICHIGAN HOURLY REGIONAL WEATHER ROUNDUP
NATIONAL WEATHER SERVICE DETROIT/PONTIAC MI
500 PM EDT FRI APR 18 2014

NOTE: "FAIR" INDICATES FEW OR NO CLOUDS BELOW 12,000 FEET WITH NO
SIGNIFICANT WEATHER AND/OR OBSTRUCTION TO VISIBILITY.

MIZ047>049-052>055-059>063-066>070-074>076-081>083-182200-
SOUTHEAST LOWER MICHIGAN

CITY           SKY/WX    TMP DP  RH WIND       PRES   REMARKS
ADRIAN         MOSUNNY   65  33  30 NW8G20    30.23F
ALMA           MOSUNNY   59  29  33 W8        30.26S
ANN ARBOR      SUNNY     64  33  31 W9G20     30.23F
BAD AXE        MOSUNNY   53  35  51 CALM      30.28F
CARO           PTSUNNY   57  38  48 NE5       30.25F
DETROIT CITY   SUNNY     56  40  55 E9        30.26F
DETROIT        PTSUNNY   59  44  57 N12       30.24F
FLINT          PTSUNNY   60  36  40 NW6       30.25F
GROSSE ILE     PTSUNNY   55  45  67 NE15      30.24F
HILLSDALE      SUNNY     64  31  28 NW12G18   30.24F
HOWELL         MOSUNNY   58  34  41 NW6       30.24F

CITY           SKY/WX    TMP DP  RH WIND       PRES   REMARKS
JACKSON        SUNNY     61  31  32 W10G18    30.23F
LAMBERTVILLE   MOSUNNY   66  37  34 NW8G17    30.23S
LANSING        MOSUNNY   59  34  39 W15       30.26F
LAPEER         FAIR      56  35  44 W6        30.25F
MASON          MOSUNNY   61  36  39 W10G18    30.25S
MONROE         MOSUNNY   57  45  62 E8        30.22S
MT. CLEMENS    MOSUNNY   51  40  65 E8        30.25F
PONTIAC        PTSUNNY   58  36  43 NW6       30.24F
PORT HOPE        N/A     38  33  82 NE8       30.30F WCI  32
PORT HURON     SUNNY     46  34  61 NE12      30.29S
TRI CITIES     MOSUNNY   59  34  39 W8G17     30.26F
TROY           MOSUNNY   57  44  62 E7        30.26F
SAGINAW HB     MOSUNNY   55  36  47 NE5       30.25F
YPSILANTI      MOSUNNY   66  35  31 NW10      30.23F
$$
MIZ043>046-050>051-056>058-064>065-071>073-077>080-182200-
SOUTHWEST LOWER MICHIGAN

CITY           SKY/WX    TMP DP  RH WIND       PRES   REMARKS
BATTLE CREEK   SUNNY     61  35  37 NW10      30.26F
BENTON HARBOR  SUNNY     42  32  67 N8        30.34S
BIG RAPIDS     SUNNY     54  25  33 NW7       30.28F
COLDWATER      MOSUNNY   62  33  32 NW9G17    30.25S
FREMONT        FAIR      52  27  38 NW9       30.30S
HOLLAND        SUNNY     48  33  56 NW12      30.33S
GRAND RAPIDS   MOSUNNY   59  34  39 W17       30.28S
IONIA          FAIR      60  32  34 W10G18    30.25S
KALAMAZOO      SUNNY     60  31  33 W12       30.27F
LUDINGTON      SUNNY     40  28  61 N14G22    30.37S WCI  32
MARSHALL       MOSUNNY   62  35  37 NW10      30.24S
MOUNT PLEASANT MOSUNNY   57  32  38 NW12G17   30.26S
MUSKEGON       MOSUNNY   49  30  48 W10       30.32F
SOUTH HAVEN    SUNNY     42  31  65 N16G23    30.34S
$$
MIZ016>042-182200-
NORTHERN LOWER MICHIGAN

CITY           SKY/WX    TMP DP  RH WIND       PRES   REMARKS
ALPENA         PTSUNNY   45  26  47 NW16G23   30.31R
BEAVER ISLAND  PTSUNNY   40  29  65 NW9       30.38S WCI  34
BELLAIRE       CLOUDY    40  26  58 NW6       30.37S
CADILLAC       SUNNY     46  28  50 NW12G17   30.30S
CHARLEVOIX     CLOUDY    38  28  67 W10       30.41R WCI  32
FRANKFORT      SUNNY     41  25  54 NE7       30.38F
GAYLORD        CLOUDY    36  22  56 W13       30.32F WCI  27
GRAYLING       MOSUNNY   40  23  50 NW9       30.33F WCI  34
HARBOR SPRINGS CLOUDY    35  31  83 SW7       30.36S WCI  29
HOUGHTON LAKE  SUNNY     46  28  49 W12G17    30.31S
MANISTEE       SUNNY     39  25  56 N12G20    30.38S WCI  32
OSCODA         SUNNY     41  31  68 E8        30.31S
PELLSTON       CLOUDY    39  26  59 NW15      30.36S WCI  31
ROGERS CITY    CLOUDY    41  28  60 NW9G21    30.34S
TRAVERSE CITY  PTSUNNY   40  25  55 N10       30.37S WCI  33
$$
MIZ007>008-015-182200-
EASTERN UPPER MICHIGAN

CITY           SKY/WX    TMP DP  RH WIND       PRES   REMARKS
KINROSS        CLOUDY    36  30  80 NW14      30.33S WCI  27
MACKINAC ISLAN CLOUDY    36  29  78 W12       30.34S WCI  27
NEWBERRY       CLOUDY    35  28  75 NW7       30.35S WCI  29
S. S. MARIE    CLOUDY    36  29  75 NW9       30.33S WCI  29
MUNISING         N/A     35  28  75 N14       30.40S WCI  26
$$
MIZ004>006-011>014-085-182200-
CENTRAL UPPER MICHIGAN

CITY           SKY/WX    TMP DP  RH WIND       PRES   REMARKS
MANISTIQUE     CLOUDY    38  28  68 N13       30.37S WCI  30
ESCANABA       MOSUNNY   45  23  42 N10G17    30.37S
MENOMINEE      MOSUNNY   43  27  52 S5        30.37S
SAWYER-GWINN   CLOUDY    34  28  80 N9        30.38S WCI  26
$$
MIZ001>003-009>011-084-182200-
WESTERN UPPER MICHIGAN

CITY           SKY/WX    TMP DP  RH WIND       PRES   REMARKS
IRON MOUNTAIN  SUNNY     40  21  46 N13       30.35F WCI  32
HOUGHTON       SUNNY     34  25  69 NW10      30.39F WCI  26
COPPER HARBOR    N/A     35  28  75 N8        30.42S WCI  29
IRONWOOD       SUNNY     39  19  45 NE6       30.33F WCI  35
$$

ABBREVIATIONS USED IN REMARKS
   TC - TEMPERATURE IN CELSIUS
  WCI - WIND CHILL INDEX
   HX - HEAT INDEX
  VSB - VISIBILITY




USA.gov is the U.S. government's official web portal to all federal, state and local government web resources and services.